STARLINK-32728, 62948

Orbit data source: Space-Track

STARLINK-32728, 62948 is a payload satellite owned by SpaceX/Seattle (US) in LEO that was launched on Tue, 11 Feb 2025 UTC via an FALCON 9 launch vehicle from the Air Force Western Test Range (AFWTR). Payload-class satellites include a variety of spacecraft equipped with specific instruments for various scientific and technological missions. These include communications satellites like Starlink; space stations such as the ISS; scientific satellites like the Hubble; Earth observation satellites from companies like Planet Labs, Umbra, and HawkEye 360; GPS; miniature CubeSats for education and research; and military/defense satellites.

Loading next visibility...
Identifier
62948, 2025-029A
Orbit
LEO
Country
Flag of USUS
Related business
Manufacturer
SpaceX/Seattle
Mission
Operational Commercial Communications
Bus & Motor
STARLINK V2M, Unknown motor
Mass
730 kg wet, ~700 kg dry
Launch date (UTC)
2025-02-11 (1 year ago)
Launch vehicle
FALCON 9
Launch site
Air Force Western Test Range (AFWTR)
Object type
Payload
Rocket body
Debris
Shape & HBR
Box + 2 Pan, 17.7 m
Radar Cross Section
33.884 m², Large (>1 m²)

Expand to show TLE details & history
Last TLE update: 1 day ago

TLE from 1 day ago
0 STARLINK-32728
1 62948U 25029A   26170.55474475  .00027144  00000-0  81150-3 0  9990
2 62948  53.1602 116.4673 0001441  88.1308 271.9860 15.34404080 76997
Epoch: 2026-06-19T13:18Z
TLE epoch observation values (Epoch: 2026-06-19T13:18:49.946Z)
Latitude
0.00001°
Longitude
8.97715°
Altitude
463.558 km
Speed
7.636 km/s
True Right ascension
07h 45m 52s
True Declination
0° 00' 00"
Sunlit
Object was in daylight at epoch
Visualization orbit readout
Latitude
Unknown
Longitude
Unknown
Altitude
Unknown
Speed
Unknown
Apparent Right ascension
Unknown
Apparent Declination
Unknown
Sunlit
N/A
Visualization observer readout
Local Sidereal Time
07:15:22
Azimuth
Unknown
Elevation
Unknown
Doppler factor
Unknown
Orbital elements
Apogee altitude
463.934 km
Perigee altitude
461.962 km
Semi-major axis
6,841.085 km
Eccentricity
0.00014
Inclination
53.1602°
RAAN
116.4673°
Arg. of periapsis
88.1308°
True anomaly
271.9695°
Mean anomaly
271.986°
Eccentric anomaly
271.97775°
Mean motion
3.8358 °/min
Orbital period
93.85 mins
BSTAR
0.0008115
Loading maneuver chart data...
Computing Atmospheric mass density...
Loading historical data...
Loading historical data...
Loading historical data...
Loading historical data...
Loading historical data...
Loading historical data...
Loading historical data...

Documentation

Showing up to 5 results
|